Weather reports worldwide

Advertisment
Hawarden, United Kingdom (3321): temperature & dewpoint: 13.02.2018 15:00:00 - 19.02.2018 15:00:00 (GMT)Hawarden, United Kingdom (3321): temperature -20cm & temperature -100cm: 13.02.2018 15:00:00 - 19.02.2018 15:00:00 (GMT)Hawarden, United Kingdom (3321): wind speed & gusts: 13.02.2018 15:00:00 - 19.02.2018 15:00:00 (GMT)Hawarden, United Kingdom (3321): wind direction: 13.02.2018 15:00:00 - 19.02.2018 15:00:00 (GMT)Hawarden, United Kingdom (3321): reduced air pressure: 13.02.2018 15:00:00 - 19.02.2018 15:00:00 (GMT)Hawarden, United Kingdom (3321): visibility: 13.02.2018 15:00:00 - 19.02.2018 15:00:00 (GMT)Hawarden, United Kingdom (3321): sunshine duration: 13.02.2018 15:00:00 - 19.02.2018 15:00:00 (GMT)Hawarden, United Kingdom (3321): precipitation: 13.02.2018 15:00:00 - 19.02.2018 15:00:00 (GMT)
Date & Time tt [°C] td [°C] tt -20cm [°C] tt -100cm [°C] ff [km/h] ff [kn] fx [km/h] fx [kn] dd ppp [hPa] vv [km] sd [min] rr [mm]
19.02.2018 15:00:00 11,0 8,6 - - 18 10 - - NW 1018,1 10 - 0,0
19.02.2018 14:00:00 11,0 8,8 - - 21 11 - - NW 1017,9 9 - 0,0
19.02.2018 13:00:00 10,8 9,0 - - 16 9 - - NW 1018,0 9 - 0,0
19.02.2018 12:00:00 11,0 9,2 - - 16 9 - - NW 1017,9 9 - 0,0
19.02.2018 11:00:00 10,5 9,0 - - 16 9 - - NW 1017,9 10 - 0,0
19.02.2018 10:00:00 10,4 9,0 - - 13 7 - - WNW 1017,6 10 - 0,0
19.02.2018 09:00:00 10,3 9,2 5,2 6,0 11 6 - - WNW 1017,2 9 - 0,0
19.02.2018 08:00:00 10,2 9,2 - - 13 7 - - NW 1017,1 8 - 0,0
19.02.2018 07:00:00 10,3 9,4 - - 13 7 - - NW 1016,8 10 - 0,0
19.02.2018 06:00:00 10,2 9,4 - - 11 6 - - NW 1016,4 10 - 0,0
19.02.2018 05:00:00 10,3 9,6 - - 9 5 - - WNW 1016,3 14 - 0,0
19.02.2018 04:00:00 10,1 9,5 - - 8 4 - - NNW 1016,3 19 - 0,2
19.02.2018 03:00:00 7,6 7,5 - - 2 1 - - SSE 1016,5 4,5 - 0,0
19.02.2018 02:00:00 7,4 7,3 - - 4 2 - - SSW 1016,8 3,7 - 0,0
19.02.2018 01:00:00 7,5 7,4 - - 5 3 - - SSE 1017,2 5 - 0,2
19.02.2018 00:00:00 7,4 7,3 - - 8 4 - - SSE 1017,4 6 - 0,2
18.02.2018 23:00:00 7,4 7,2 - - 9 5 - - SSE 1017,5 5 - 0,4
18.02.2018 22:00:00 7,3 7,1 - - 9 5 - - SSE 1017,6 4,7 - 0,2
18.02.2018 21:00:00 7,3 7,0 - - 13 7 - - SSE 1017,9 5 - 0,6
18.02.2018 20:00:00 7,3 6,9 - - 11 6 - - SSE 1018,1 6 - 1,0
18.02.2018 19:00:00 7,3 6,7 - - 13 7 - - SSE 1018,3 9 - 0,8
18.02.2018 18:00:00 7,6 6,6 - - 15 8 - - SSE 1018,5 9 - 0,0
18.02.2018 17:00:00 8,3 6,2 - - 15 8 - - SSE 1018,5 10 - 0,0
18.02.2018 16:00:00 8,7 5,9 - - 15 8 - - SSE 1018,8 10 - 0,0
18.02.2018 15:00:00 8,9 6,0 - - 16 9 - - SSE 1018,9 10 - 0,0
18.02.2018 14:00:00 8,6 5,8 - - 18 10 - - SSE 1018,8 10 - 0,0
18.02.2018 13:00:00 8,3 5,6 - - 16 9 - - SSE 1019,4 10 - 0,0
18.02.2018 12:00:00 7,6 5,8 - - 15 8 - - SSE 1019,6 10 - 0,0
18.02.2018 11:00:00 6,6 5,8 - - 13 7 - - SSE 1019,8 8 - 0,0
18.02.2018 10:00:00 5,1 4,6 - - 11 6 - - SE 1019,7 6 - 0,0
18.02.2018 09:00:00 4,2 4,0 4,4 6,0 9 5 - - SSE 1020,0 7 - 0,0
18.02.2018 08:00:00 2,7 2,6 - - 13 7 - - SSE 1020,3 6 - 0,2
18.02.2018 07:00:00 1,5 1,4 - - 8 4 - - SSE 1020,1 5 - 0,0
18.02.2018 06:00:00 1,2 1,0 - - 8 4 - - SE 1020,1 4,7 - 0,0
18.02.2018 05:00:00 0,9 0,4 - - 8 4 - - SSE 1020,1 7 - 0,0
18.02.2018 04:00:00 1,9 1,4 - - 8 4 - - SSE 1019,6 10 - 0,0
18.02.2018 03:00:00 3,3 2,6 - - 5 3 - - SSE 1020,4 17 - 0,0
18.02.2018 02:00:00 3,4 2,6 - - 8 4 - - SSE 1021,0 17 - 0,0
18.02.2018 01:00:00 2,8 2,2 - - 9 5 - - S 1021,0 18 - 0,0
18.02.2018 00:00:00 2,8 1,9 - - 13 7 - - S 1020,7 16 - 0,0
17.02.2018 23:00:00 3,0 1,5 - - 9 5 - - SE 1020,9 24 - 0,0
17.02.2018 22:00:00 3,4 1,9 - - 9 5 - - S 1020,8 27 - 0,0
17.02.2018 21:00:00 2,0 0,0 - - 8 4 - - SSW 1020,7 28 - 0,0
17.02.2018 20:00:00 2,9 0,0 - - 5 3 - - SE 1020,6 20 - 0,0
17.02.2018 19:00:00 4,0 1,0 - - 9 5 - - SSE 1020,6 10 - 0,0
17.02.2018 18:00:00 5,8 1,5 - - 5 3 - - - 1020,0 10 - 0,0
17.02.2018 17:00:00 7,9 1,8 - - 13 7 - - SW 1019,9 10 - 0,0
17.02.2018 16:00:00 9,7 2,0 - - 18 10 - - SW 1019,7 10 - 0,0
17.02.2018 15:00:00 10,0 2,3 - - 18 10 - - SW 1019,5 10 - 0,0
17.02.2018 14:00:00 10,2 2,3 - - 9 5 - - SW 1019,5 10 - 0,0
17.02.2018 13:00:00 9,9 1,3 - - 9 5 - - NW 1019,9 10 - 0,0
17.02.2018 12:00:00 9,1 3,1 - - 8 4 - - WSW 1020,0 10 - 0,0
17.02.2018 11:00:00 8,5 4,4 - - 15 8 - - SSE 1019,6 10 - 0,0
17.02.2018 10:00:00 6,6 4,1 - - 16 9 - - SSE 1019,4 10 - 0,0
17.02.2018 09:00:00 5,1 3,0 4,0 6,0 18 10 - - S 1019,1 10 - 0,0
17.02.2018 08:00:00 4,4 2,1 - - 11 6 - - S 1018,9 30 - 0,0
17.02.2018 07:00:00 4,4 2,0 - - 16 9 - - SSE 1018,4 28 - 0,0
17.02.2018 06:00:00 4,1 2,3 - - 15 8 - - SSE 1018,4 23 - 0,0
17.02.2018 05:00:00 3,9 2,1 - - 9 5 - - SE 1018,5 23 - 0,0
17.02.2018 04:00:00 4,3 2,3 - - 16 9 - - SSE 1018,5 20 - 0,0
17.02.2018 03:00:00 4,4 2,2 - - 16 9 - - S 1019,1 23 - 0,0
17.02.2018 02:00:00 4,2 2,2 - - 13 7 - - S 1019,6 25 - 0,0
17.02.2018 01:00:00 4,4 2,1 - - 9 5 - - SE 1019,6 25 - 0,0
17.02.2018 00:00:00 4,6 1,9 - - 13 7 - - SE 1020,1 30 - 0,0
16.02.2018 23:00:00 4,7 1,6 - - 15 8 - - SSE 1020,2 28 - 0,0
16.02.2018 22:00:00 4,8 1,7 - - 15 8 - - SSE 1020,4 29 - 0,0
16.02.2018 21:00:00 4,4 1,8 - - 8 4 - - SSW 1020,5 10 - 0,0
16.02.2018 20:00:00 4,9 1,7 - - 13 7 - - SSE 1020,5 10 - 0,0
16.02.2018 19:00:00 5,1 1,2 - - 15 8 - - SE 1020,8 10 - 0,0
16.02.2018 18:00:00 5,4 1,8 - - 13 7 - - S 1021,0 10 - 0,0
16.02.2018 17:00:00 6,7 1,4 - - 9 5 - - SSE 1020,8 10 - 0,0
16.02.2018 16:00:00 8,7 1,5 - - 13 7 - - S 1021,1 10 - 0,0
16.02.2018 15:00:00 9,0 2,1 - - 21 11 - - S 1021,4 10 - 0,0
16.02.2018 14:00:00 8,4 3,8 - - 16 9 - - SSE 1021,8 10 - 0,0
16.02.2018 13:00:00 7,2 3,2 - - 13 7 - - S 1022,6 10 - 0,0
16.02.2018 12:00:00 6,8 2,3 - - 9 5 - - SSE 1023,0 10 - 0,0
16.02.2018 11:00:00 6,0 2,6 - - 16 9 - - SE 1023,1 10 - 0,0
16.02.2018 10:00:00 4,1 0,9 - - 13 7 - - S 1023,1 10 - 0,0
16.02.2018 09:00:00 2,0 -0,1 3,7 6,0 13 7 - - S 1022,5 10 - 0,0
16.02.2018 08:00:00 -0,3 -1,9 - - 9 5 - - SW 1022,1 10 - 0,0
16.02.2018 07:00:00 1,0 -1,0 - - 15 8 - - S 1021,4 10 - 0,0
16.02.2018 06:00:00 1,2 -1,2 - - 13 7 - - S 1021,0 25 - 0,0
16.02.2018 05:00:00 2,6 -0,4 - - 8 4 - - SW 1020,2 21 - 0,0
16.02.2018 04:00:00 2,9 -0,7 - - 16 9 - - SW 1019,7 22 - 0,0
16.02.2018 03:00:00 3,3 -1,2 - - 15 8 - - WSW 1019,2 27 - 0,0
16.02.2018 02:00:00 3,1 -1,4 - - 16 9 - - WSW 1018,5 22 0 0,0
16.02.2018 01:00:00 3,4 -1,5 - - 21 11 - - SW 1017,7 29 0 0,0
16.02.2018 00:00:00 3,0 -1,9 - - 11 6 - - WSW 1017,0 30 - 0,0
15.02.2018 23:00:00 4,0 -1,4 - - 18 10 - - WSW 1016,2 26 0 0,0
15.02.2018 22:00:00 4,0 -2,2 - - 16 9 - - WSW 1015,6 40 0 0,0
15.02.2018 21:00:00 4,2 -1,4 - - 22 12 - - SW 1014,5 10 0 0,0
15.02.2018 20:00:00 3,4 -1,4 - - 13 7 - - SSW 1013,5 10 0 0,0
15.02.2018 19:00:00 4,5 -1,2 - - 29 16 - - SW 1012,9 10 0 0,0
15.02.2018 18:00:00 4,7 -1,8 - - 18 10 - - SW 1012,0 10 0 0,0
15.02.2018 17:00:00 5,9 -1,7 - - 18 10 50 27 WSW 1011,2 10 48 0,0
15.02.2018 16:00:00 6,9 -2,3 - - 28 15 52 28 WSW 1009,8 10 60 0,0
15.02.2018 15:00:00 7,5 -1,8 - - 29 16 55 30 WSW 1008,9 10 60 0,0
15.02.2018 14:00:00 7,7 -3,2 - - 35 19 61 33 WSW 1008,5 10 54 0,0
15.02.2018 13:00:00 7,4 -3,3 - - 37 20 63 34 WSW 1007,7 10 60 0,0
15.02.2018 12:00:00 7,1 -2,3 - - 35 19 54 29 WSW 1007,0 10 60 0,0
15.02.2018 11:00:00 6,6 -2,3 - - 31 17 52 28 W 1006,4 10 54 0,0
15.02.2018 10:00:00 6,0 -1,7 - - 26 14 46 25 WSW 1005,2 10 60 0,0
15.02.2018 09:00:00 5,5 0,2 4,0 6,2 18 10 - - SW 1004,1 10 42 0,0
15.02.2018 08:00:00 3,3 0,3 - - 13 7 - - S 1002,9 10 0 0,0
15.02.2018 07:00:00 3,8 0,2 - - 15 8 - - SSW 1002,1 10 0 0,0
15.02.2018 06:00:00 5,6 1,3 - - 15 8 - - WSW 1000,8 27 0 0,0
15.02.2018 05:00:00 6,4 2,3 - - 15 8 - - W 999,4 45 0 0,0
15.02.2018 04:00:00 7,1 3,9 - - 18 10 - - WSW 998,2 45 0 0,0
15.02.2018 03:00:00 6,8 4,1 - - 16 9 - - SSW 997,4 35 0 0,0
15.02.2018 02:00:00 5,0 3,8 - - 11 6 - - SSE 997,2 16 0 0,0
15.02.2018 01:00:00 4,2 2,7 - - 9 5 - - SSE 996,9 14 0 0,0
15.02.2018 00:00:00 4,3 3,8 - - 8 4 - - SSE 996,7 15 - 0,0
14.02.2018 23:00:00 4,9 4,6 - - 15 8 - - SE 996,1 11 0 0,0
14.02.2018 22:00:00 5,1 4,7 - - 15 8 - - SSE 995,9 10 0 0,4
14.02.2018 21:00:00 5,7 5,3 - - 13 7 - - S 995,5 10 0 0,0
14.02.2018 20:00:00 5,7 5,3 - - 16 9 - - SSE 995,1 10 0 0,2
14.02.2018 19:00:00 6,1 5,8 - - 26 14 - - SSE 994,8 10 0 0,0
14.02.2018 18:00:00 6,0 5,5 - - 26 14 - - SSE 994,5 10 0 0,0
14.02.2018 17:00:00 6,1 5,1 - - 26 14 48 26 SSE 994,1 10 0 0,2
14.02.2018 16:00:00 6,5 4,4 - - 26 14 46 25 SSE 994,5 10 0 0,0
14.02.2018 15:00:00 6,3 3,9 - - 34 18 61 33 SSE 994,8 10 0 0,0
14.02.2018 14:00:00 5,4 3,6 - - 39 21 57 31 S 995,2 10 0 0,0
14.02.2018 13:00:00 4,1 2,7 - - 37 20 55 30 SSE 995,8 10 0 0,0
14.02.2018 12:00:00 3,8 2,1 - - 41 22 55 30 SSE 995,7 10 0 0,0
14.02.2018 11:00:00 3,1 1,4 - - 44 24 61 33 SSE 996,8 10 0 0,0
14.02.2018 10:00:00 2,6 -0,4 - - 39 21 52 28 SSE 997,5 10 0 -
14.02.2018 09:00:00 1,8 -1,4 3,7 6,2 37 20 50 27 SSE 998,6 10 0 0,0
14.02.2018 08:00:00 1,0 -1,6 - - 24 13 - - SE 999,6 10 0 0,0
14.02.2018 07:00:00 0,7 -1,8 - - 21 11 - - SE 1001,0 10 0 0,0
14.02.2018 06:00:00 -0,5 -2,4 - - 5 3 - - SW 1002,4 35 0 0,0
14.02.2018 05:00:00 -0,6 -2,4 - - 21 11 - - SSE 1002,8 30 0 0,0
14.02.2018 04:00:00 -1,0 -2,5 - - 15 8 - - S 1003,3 28 0 0,0
14.02.2018 03:00:00 -0,8 -2,2 - - 15 8 - - S 1004,2 23 0 0,0
14.02.2018 02:00:00 -1,5 -2,8 - - 15 8 - - SSE 1005,2 24 0 0,0
14.02.2018 01:00:00 -2,9 -3,9 - - 5 3 - - S 1005,7 24 0 0,0
14.02.2018 00:00:00 -2,1 -3,4 - - 5 3 - - S 1005,5 26 - 0,0
13.02.2018 23:00:00 -1,9 -3,9 - - 11 6 - - S 1005,8 24 0 0,0
13.02.2018 22:00:00 1,8 -2,8 - - 13 7 - - WSW 1006,0 35 0 0,0
13.02.2018 21:00:00 1,6 -2,5 - - 9 5 - - SW 1005,6 10 0 0,0
13.02.2018 20:00:00 1,1 -2,5 - - 9 5 - - SW 1005,2 10 0 0,0
13.02.2018 19:00:00 2,5 -2,4 - - 5 3 - - - 1004,8 10 0 0,0
13.02.2018 18:00:00 3,6 -1,8 - - 9 5 - - WNW 1003,9 10 0 0,0
13.02.2018 17:00:00 4,7 -1,2 - - 13 7 - - WNW 1002,8 10 48 0,0
13.02.2018 16:00:00 5,4 1,3 - - 18 10 - - NNW 1001,4 10 54 0,0
13.02.2018 15:00:00 3,5 1,6 - - 24 13 - - N 1000,5 10 0 0,4

tt = temperature
td = dewpoint
tt -20cm = temperature -20cm
tt -100cm = temperature -100cm
ff = wind speed
fx = gusts
dd = wind direction
ppp = reduced air pressure
vv = visibility
sd = sunshine duration
rr = precipitation

Next stations